User: anonymous   Login
Location: Ay?beleni
(36.6500°N, 30.3000°E)
Time: 12:23:12
(UTC+00:00)
Language:

Cosmos 1954 Rocket - Orbit

View from above orbital plane
View from above orbital plane
View from above satellite
View from above satellite

Ground track
Ground track

The orbit data is extracted from the following two-line orbital elements,

1 19257U 88053B   20191.10472648 -.00000013  00000-0  43947-5 0  9990
2 19257  74.0501 321.1731 0021398 294.1835 238.9040 14.37472236679395
Epoch (UTC): 09 July 2020 02:30:48
Eccentricity: 0.0021398
inclination: 74.0501°
perigee height: 751 km
apogee height: 782 km
right ascension of ascending node: 321.1731°
argument of perigee: 294.1835°
revolutions per day: 14.37472236
mean anomaly at epoch: 238.9040°
orbit number at epoch: 67939

The dashed part of the orbit path shows where the satellite is in the earth's shadow,  

DLR